sat.trackr.live / text

‹ back to catalog

STARLINK-31623

NORAD 59272 · 2024-050U

PAYLOAD ACTIVE UNKNOWN

§ Identity

Operator
Country
US
Launch date
2024-03-19
Launch site
AFWTR
Launch vehicle
Mass (kg)
RCS (m²)

Purposes: comms

External: N2YO · Heavens-Above · Gunter

§ Orbital elements

Epoch: 2026-09-20T22:53:55.961952Z

Period
93.85 min
Inclination
53.1608°
Eccentricity
0.0001449
Mean motion
15.34389500 rev/d
Perigee alt
461.7 km
Apogee alt
463.7 km
Semi-major
6,840.9 km
B*
-8.2936e-7
RAAN
351.2358°
Arg perigee
92.1574°
Mean anomaly
267.9594°
Rev number
14,048

§ Raw data

STARLINK-316231 59272U 24050U   26263.95411993 -.00000404  00000+0 -82936-6 0  99992 59272  53.1608 351.2358 0001449  92.1574 267.9594 15.34389500140480

JSON: /api/v1/satellites/59272 · /tle

For live sub-satellite position, see the globe view (requires WebGL).

§ Visibility from observer

Set your observer location to see the next 7 days of passes ≥ 10°. The values pass through the URL so the page stays shareable.

No JS? Fill the form by hand. The geolocation button needs JavaScript.